﻿TIME_UTC_SECONDS;TIME_UTC_STR;AIR_TEMP;TRACK_TEMP;HUMIDITY;PRESSURE;WIND_SPEED;WIND_DIRECTION;RAIN;
1657353644;09/07/2022 08:00:44;25.2222;39;55;1008.06;0;241;-1;
1657353709;09/07/2022 08:01:49;25.2778;39.2;55;1008.06;0;241;-1;
1657353773;09/07/2022 08:02:53;25.2778;39.2;54;1008.06;4.24374;246;-1;
1657353834;09/07/2022 08:03:54;25.3333;39.3;54;1008.09;1.06093;248;-1;
1657353899;09/07/2022 08:04:59;25.3333;39.5;54;1008.03;3.1828;81;-1;
1657353964;09/07/2022 08:06:04;25.3889;39.5;54;1008.06;3.1828;88;-1;
1657354029;09/07/2022 08:07:09;25.5;39.5;54;1008.06;3.1828;154;-1;
1657354094;09/07/2022 08:08:14;25.6667;39.7;54;1008.03;3.1828;203;-1;
1657354159;09/07/2022 08:09:19;25.7222;39.8;53;1008.06;2.12187;250;-1;
1657354224;09/07/2022 08:10:24;25.7778;40;53;1008.09;1.06093;228;-1;
1657354289;09/07/2022 08:11:29;25.8333;40.1;53;1007.99;0;228;-1;
1657354354;09/07/2022 08:12:34;25.8333;40.1;53;1008.03;0;229;-1;
1657354419;09/07/2022 08:13:39;25.8889;40.3;53;1008.03;1.06093;229;-1;
1657354483;09/07/2022 08:14:43;25.8889;40.4;52;1007.99;1.06093;236;-1;
1657354544;09/07/2022 08:15:44;25.8889;40.4;52;1008.03;1.06093;236;-1;
1657354608;09/07/2022 08:16:48;25.9444;40.6;52;1008.03;0;236;-1;
1657354674;09/07/2022 08:17:54;26;40.7;52;1008.03;0;236;-1;
1657354739;09/07/2022 08:18:59;26.0556;40.8;52;1008.06;2.12187;236;-1;
1657354803;09/07/2022 08:20:03;26.1667;40.8;52;1008.03;1.06093;236;-1;
1657354873;09/07/2022 08:21:13;26.2222;40.9;52;1007.99;2.12187;293;-1;
1657354934;09/07/2022 08:22:14;26.2778;41;51;1008.06;1.06093;240;-1;
1657354998;09/07/2022 08:23:18;26.3333;41.1;51;1008.06;1.06093;248;-1;
1657355058;09/07/2022 08:24:18;26.3889;41.2;50;1007.99;1.06093;298;-1;
1657355119;09/07/2022 08:25:19;26.4444;41.4;51;1008.06;2.12187;319;-1;
1657355183;09/07/2022 08:26:23;26.5;41.5;50;1008.06;2.12187;318;-1;
1657355244;09/07/2022 08:27:24;26.5;41.6;50;1007.99;2.12187;318;-1;
1657355308;09/07/2022 08:28:28;26.5;41.7;50;1007.99;3.1828;217;-1;
1657355374;09/07/2022 08:29:34;26.5556;41.8;50;1008.06;2.12187;207;-1;
1657355439;09/07/2022 08:30:39;26.6111;41.9;50;1008.03;5.30467;219;-1;
1657355503;09/07/2022 08:31:43;26.6111;42;49;1008.03;5.30467;219;-1;
1657355569;09/07/2022 08:32:49;26.6111;42.1;49;1008.2;3.1828;226;-1;
1657355634;09/07/2022 08:33:54;26.6111;42.2;49;1008.09;1.06093;223;-1;
1657355698;09/07/2022 08:34:58;26.6111;42.3;50;1007.99;3.1828;204;-1;
1657355764;09/07/2022 08:36:04;26.6667;42.5;49;1008.06;1.06093;205;-1;
1657355829;09/07/2022 08:37:09;26.7222;42.6;50;1008.09;3.1828;218;-1;
1657355893;09/07/2022 08:38:13;26.7222;42.7;50;1008.03;2.12187;217;-1;
1657355954;09/07/2022 08:39:14;26.7778;42.8;49;1008.09;2.12187;217;-1;
1657356018;09/07/2022 08:40:18;26.8333;42.8;50;1008.06;4.24374;209;-1;
1657356084;09/07/2022 08:41:24;26.8889;42.9;50;1008.09;3.1828;202;-1;
1657356149;09/07/2022 08:42:29;26.9444;43;49;1008.09;6.3656;213;-1;
1657356213;09/07/2022 08:43:33;26.9444;43.1;49;1008.06;4.24374;210;-1;
1657356279;09/07/2022 08:44:39;26.9444;43.3;49;1008.03;5.30467;220;-1;
1657356344;09/07/2022 08:45:44;26.9444;43.4;49;1008.06;2.12187;213;-1;
1657356408;09/07/2022 08:46:48;26.9444;43.5;50;1008.03;2.12187;192;-1;
1657356469;09/07/2022 08:47:49;27;43.6;50;1008.06;4.24374;211;-1;
1657356534;09/07/2022 08:48:54;27;43.7;49;1008.06;6.3656;211;-1;
1657356599;09/07/2022 08:49:59;27.0556;43.8;49;1008.09;5.30467;210;-1;
1657356664;09/07/2022 08:51:04;27.0556;43.9;49;1008.03;6.3656;215;-1;
1657356729;09/07/2022 08:52:09;27.1111;44;49;1008.09;2.12187;217;-1;
1657356794;09/07/2022 08:53:14;27.1667;44.1;49;1008.03;5.30467;200;-1;
1657356859;09/07/2022 08:54:19;27.1667;44.2;49;1008.03;5.30467;210;-1;
1657356923;09/07/2022 08:55:23;27.1667;44.3;49;1008.03;4.24374;195;-1;
1657356984;09/07/2022 08:56:24;27.2222;44.4;49;1007.96;2.12187;202;-1;
1657357048;09/07/2022 08:57:28;27.2778;44.5;48;1007.96;6.3656;234;-1;
1657357114;09/07/2022 08:58:34;27.2778;44.6;48;1008.03;3.1828;247;-1;
1657357179;09/07/2022 08:59:39;27.3333;44.6;48;1008.03;3.1828;226;-1;
1657357244;09/07/2022 09:00:44;27.3889;44.7;48;1007.96;1.06093;230;-1;
1657357309;09/07/2022 09:01:49;27.3889;44.9;48;1008.03;1.06093;216;-1;
1657357374;09/07/2022 09:02:54;27.5;45;48;1007.99;5.30467;195;-1;
1657357438;09/07/2022 09:03:58;27.5556;45.1;48;1007.96;3.1828;203;-1;
1657357499;09/07/2022 09:04:59;27.5556;45.1;48;1007.99;5.30467;204;-1;
1657357563;09/07/2022 09:06:03;27.5556;45.3;47;1008.03;5.30467;209;-1;
1657357629;09/07/2022 09:07:09;27.5556;45.4;48;1007.99;2.12187;211;-1;
1657357694;09/07/2022 09:08:14;27.5556;45.5;48;1007.99;3.1828;204;-1;
1657357758;09/07/2022 09:09:18;27.5556;45.6;48;1007.96;3.1828;250;-1;
1657357824;09/07/2022 09:10:24;27.6111;45.8;48;1007.96;5.30467;206;-1;
1657357889;09/07/2022 09:11:29;27.6667;45.8;47;1007.99;4.24374;205;-1;
1657357953;09/07/2022 09:12:33;27.6667;46;47;1007.96;6.3656;222;-1;
1657358013;09/07/2022 09:13:33;27.7222;46.1;47;1007.92;3.1828;258;-1;
1657358074;09/07/2022 09:14:34;27.7778;46.1;47;1007.96;2.12187;240;-1;
1657358138;09/07/2022 09:15:38;27.8333;46.3;47;1007.89;5.30467;211;-1;
1657358199;09/07/2022 09:16:39;27.8333;46.4;47;1007.86;4.24374;213;-1;
1657358264;09/07/2022 09:17:44;27.8333;46.4;47;1007.89;3.1828;200;-1;
1657358329;09/07/2022 09:18:49;27.8889;46.7;47;1007.89;3.1828;218;-1;
1657358394;09/07/2022 09:19:54;27.9444;46.7;47;1007.92;2.12187;211;-1;
1657358458;09/07/2022 09:20:58;27.9444;46.8;47;1007.96;0;211;-1;
1657358524;09/07/2022 09:22:04;28;46.9;47;1007.96;4.24374;217;-1;
1657358589;09/07/2022 09:23:09;28.1111;47;46;1007.86;5.30467;218;-1;
1657358653;09/07/2022 09:24:13;28.1667;47.2;46;1007.96;4.24374;207;-1;
1657358714;09/07/2022 09:25:14;28.1667;47.3;47;1007.89;6.3656;209;-1;
1657358779;09/07/2022 09:26:19;28.1667;47.3;46;1007.92;5.30467;202;-1;
1657358844;09/07/2022 09:27:24;28.1667;47.4;46;1007.96;7.42654;213;-1;
1657358909;09/07/2022 09:28:29;28.1667;47.5;46;1007.92;4.24374;221;-1;
1657358974;09/07/2022 09:29:34;28.1111;47.6;46;1007.99;3.1828;230;-1;
1657359039;09/07/2022 09:30:39;28.1667;47.8;47;1007.92;1.06093;230;-1;
1657359104;09/07/2022 09:31:44;28.2222;47.8;47;1007.96;2.12187;22;-1;
1657359168;09/07/2022 09:32:48;28.3333;48;49;1007.96;3.1828;315;-1;
1657359229;09/07/2022 09:33:49;28.4444;48;49;1007.92;4.24374;333;-1;
1657359294;09/07/2022 09:34:54;28.5556;48.1;49;1007.89;3.1828;325;-1;
1657359359;09/07/2022 09:35:59;28.6111;48.2;49;1007.96;3.1828;69;-1;
1657359424;09/07/2022 09:37:04;28.6667;48.2;49;1007.89;3.1828;35;-1;
1657359489;09/07/2022 09:38:09;28.6667;48.3;49;1007.92;2.12187;41;-1;
1657359554;09/07/2022 09:39:14;28.7222;48.4;49;1007.92;4.24374;346;-1;
1657359624;09/07/2022 09:40:24;28.7778;48.4;48;1007.99;4.24374;30;-1;
1657359689;09/07/2022 09:41:29;28.8333;48.5;48;1007.82;4.24374;20;-1;
1657359754;09/07/2022 09:42:34;28.8333;48.5;48;1007.86;4.24374;355;-1;
1657359819;09/07/2022 09:43:39;28.8333;48.6;48;1007.86;3.1828;61;-1;
1657359884;09/07/2022 09:44:44;28.8333;48.7;48;1007.89;5.30467;355;-1;
1657359949;09/07/2022 09:45:49;28.8333;48.8;48;1007.86;5.30467;311;-1;
1657360014;09/07/2022 09:46:54;28.7778;48.9;48;1007.79;5.30467;58;-1;
1657360079;09/07/2022 09:47:59;28.7222;49;48;1007.92;3.1828;33;-1;
1657360144;09/07/2022 09:49:04;28.7222;49.1;49;1007.89;3.1828;46;-1;
1657360208;09/07/2022 09:50:08;28.6667;49.1;49;1007.86;5.30467;333;-1;
1657360274;09/07/2022 09:51:14;28.6111;49.1;49;1007.82;8.48747;348;-1;
1657360339;09/07/2022 09:52:19;28.5556;49.2;50;1007.89;7.42654;84;-1;
1657360403;09/07/2022 09:53:23;28.5556;49.2;50;1007.76;4.24374;49;-1;
1657360464;09/07/2022 09:54:24;28.6111;49.2;50;1007.86;3.1828;88;-1;
1657360528;09/07/2022 09:55:28;28.6667;49.4;50;1007.86;4.24374;58;-1;
1657360594;09/07/2022 09:56:34;28.6667;49.4;49;1007.76;4.24374;5;-1;
1657360659;09/07/2022 09:57:39;28.7222;49.4;49;1007.72;2.12187;5;-1;
1657360723;09/07/2022 09:58:43;28.7222;49.3;49;1007.99;4.24374;360;-1;
1657360789;09/07/2022 09:59:49;28.7222;49.4;49;1007.82;5.30467;57;-1;
1657360854;09/07/2022 10:00:54;28.6667;49.6;50;1007.86;5.30467;326;-1;
1657360918;09/07/2022 10:01:58;28.6111;49.7;50;1007.69;5.30467;71;-1;
1657360979;09/07/2022 10:02:59;28.5;49.7;51;1007.82;8.48747;115;-1;
1657361039;09/07/2022 10:03:59;28.4444;49.7;51;1007.86;7.42654;308;-1;
1657361103;09/07/2022 10:05:03;28.3889;49.7;52;1007.79;4.24374;38;-1;
1657361164;09/07/2022 10:06:04;28.3889;49.7;52;1007.79;7.42654;253;-1;
1657361229;09/07/2022 10:07:09;28.2778;49.8;52;1007.82;5.30467;42;-1;
1657361294;09/07/2022 10:08:14;28.1667;49.9;52;1007.72;4.24374;69;-1;
1657361359;09/07/2022 10:09:19;28.1111;50;53;1007.89;9.54841;349;-1;
1657361423;09/07/2022 10:10:23;28;50;52;1007.76;2.12187;27;-1;
1657361489;09/07/2022 10:11:29;28;50.1;52;1007.79;6.3656;360;-1;
1657361554;09/07/2022 10:12:34;28;50.2;52;1007.69;5.30467;69;-1;
1657361618;09/07/2022 10:13:38;28;50.3;52;1007.76;5.30467;340;-1;
1657361679;09/07/2022 10:14:39;28;50.4;52;1007.72;4.24374;5;-1;
1657361744;09/07/2022 10:15:44;28.0556;50.5;51;1007.69;8.48747;344;-1;
1657361809;09/07/2022 10:16:49;28.0556;50.5;50;1007.76;5.30467;13;-1;
1657361874;09/07/2022 10:17:54;28.0556;50.5;50;1007.79;4.24374;21;-1;
1657361939;09/07/2022 10:18:59;28.0556;50.5;50;1007.76;5.30467;341;-1;
1657362004;09/07/2022 10:20:04;28.0556;50.7;50;1007.79;2.12187;85;-1;
1657362069;09/07/2022 10:21:09;28.1111;50.7;50;1007.76;4.24374;313;-1;
1657362133;09/07/2022 10:22:13;28.1667;50.7;50;1007.79;3.1828;110;-1;
1657362194;09/07/2022 10:23:14;28.2222;50.9;50;1007.72;3.1828;343;-1;
1657362259;09/07/2022 10:24:19;28.2222;50.9;50;1007.82;8.48747;88;-1;
1657362324;09/07/2022 10:25:24;28.2222;51;50;1007.72;5.30467;69;-1;
1657362389;09/07/2022 10:26:29;28.2778;51.1;50;1007.72;6.3656;340;-1;
1657362453;09/07/2022 10:27:33;28.2778;51.1;50;1007.69;4.24374;345;-1;
1657362513;09/07/2022 10:28:33;28.3333;51.2;49;1007.76;4.24374;30;-1;
1657362574;09/07/2022 10:29:34;28.3889;51.2;49;1007.76;5.30467;73;-1;
1657362638;09/07/2022 10:30:38;28.3889;51.3;48;1007.76;6.3656;5;-1;
1657362699;09/07/2022 10:31:39;28.3333;51.2;48;1007.65;5.30467;15;-1;
1657362764;09/07/2022 10:32:44;28.3333;51.2;48;1007.69;4.24374;84;-1;
1657362829;09/07/2022 10:33:49;28.2778;51.3;48;1007.76;8.48747;24;-1;
1657362894;09/07/2022 10:34:54;28.2222;51.3;48;1007.65;4.24374;46;-1;
1657362959;09/07/2022 10:35:59;28.1667;51.3;48;1007.69;2.12187;25;-1;
1657363024;09/07/2022 10:37:04;28.1667;51.3;48;1007.76;6.3656;24;-1;
1657363089;09/07/2022 10:38:09;28.2222;51.4;48;1007.72;8.48747;9;-1;
1657363153;09/07/2022 10:39:13;28.2222;51.4;48;1007.69;5.30467;44;-1;
1657363214;09/07/2022 10:40:14;28.1667;51.5;48;1007.69;2.12187;319;-1;
1657363279;09/07/2022 10:41:19;28.1667;51.6;48;1007.69;5.30467;22;-1;
1657363344;09/07/2022 10:42:24;28.1667;51.7;49;1007.79;4.24374;63;-1;
1657363409;09/07/2022 10:43:29;28.1111;51.7;49;1007.72;6.3656;321;-1;
1657363474;09/07/2022 10:44:34;28.0556;51.7;49;1007.69;4.24374;78;-1;
1657363539;09/07/2022 10:45:39;28.0556;51.8;50;1007.69;9.54841;65;-1;
1657363604;09/07/2022 10:46:44;28.1111;51.8;50;1007.86;5.30467;37;-1;
1657363668;09/07/2022 10:47:48;28.0556;51.8;50;1007.76;7.42654;86;-1;
1657363734;09/07/2022 10:48:54;28.1111;51.9;50;1007.69;6.3656;48;-1;
1657363799;09/07/2022 10:49:59;28.1111;52;50;1007.72;5.30467;80;-1;
1657363863;09/07/2022 10:51:03;28.1111;52;49;1007.65;4.24374;88;-1;
1657363924;09/07/2022 10:52:04;28.1667;52.1;50;1007.55;9.54841;73;-1;
1657363989;09/07/2022 10:53:09;28.1111;52.2;50;1007.59;2.12187;92;-1;
1657364054;09/07/2022 10:54:14;28.0556;52.1;50;1007.65;1.06093;31;-1;
1657364119;09/07/2022 10:55:19;28.1111;52.2;51;1007.72;3.1828;355;-1;
1657364184;09/07/2022 10:56:24;28.1667;52.3;51;1007.69;3.1828;279;-1;
1657364249;09/07/2022 10:57:29;28.1667;52.3;51;1007.65;4.24374;52;-1;
1657364314;09/07/2022 10:58:34;28.1667;52.4;52;1007.65;4.24374;61;-1;
1657364378;09/07/2022 10:59:38;28.2222;52.6;53;1007.65;4.24374;62;-1;
1657364439;09/07/2022 11:00:39;28.2222;52.6;53;1007.65;4.24374;100;-1;
1657364504;09/07/2022 11:01:44;28.1667;52.6;54;1007.79;3.1828;100;-1;
1657364569;09/07/2022 11:02:49;28.1667;52.8;54;1007.69;6.3656;273;-1;
1657364634;09/07/2022 11:03:54;28.1667;52.9;54;1007.72;6.3656;360;-1;
1657364699;09/07/2022 11:04:59;28.1111;53;54;1007.62;3.1828;340;-1;
1657364764;09/07/2022 11:06:04;28;53.1;54;1007.65;2.12187;5;-1;
1657364829;09/07/2022 11:07:09;28;53.2;54;1007.69;3.1828;23;-1;
1657364894;09/07/2022 11:08:14;28;53.4;54;1007.62;7.42654;300;-1;
1657364959;09/07/2022 11:09:19;28;53.4;55;1007.65;2.12187;150;-1;
1657365024;09/07/2022 11:10:24;28;53.6;54;1007.69;5.30467;248;-1;
1657365088;09/07/2022 11:11:28;28.0556;53.6;53;1007.62;2.12187;87;-1;
1657365149;09/07/2022 11:12:29;28.1667;53.7;52;1007.59;3.1828;259;-1;
1657365214;09/07/2022 11:13:34;28.1667;53.8;52;1007.59;3.1828;304;-1;
1657365279;09/07/2022 11:14:39;28.2222;53.8;52;1007.62;3.1828;360;-1;
1657365344;09/07/2022 11:15:44;28.2222;53.9;53;1007.55;1.06093;24;-1;
1657365408;09/07/2022 11:16:48;28.3333;54.1;52;1007.59;4.24374;258;-1;
1657365474;09/07/2022 11:17:54;28.3333;54.1;52;1007.59;2.12187;234;-1;
1657365539;09/07/2022 11:18:59;28.3333;54.1;52;1007.59;2.12187;139;-1;
1657365604;09/07/2022 11:20:04;28.3889;54.2;52;1007.59;1.06093;15;-1;
1657365664;09/07/2022 11:21:04;28.4444;54.3;53;1007.42;1.06093;252;-1;
1657365729;09/07/2022 11:22:09;28.5;54.4;52;1007.38;4.24374;67;-1;
1657365794;09/07/2022 11:23:14;28.5556;54.4;53;1007.38;2.12187;20;-1;
1657365859;09/07/2022 11:24:19;28.6111;54.4;53;1007.42;4.24374;71;-1;
1657365924;09/07/2022 11:25:24;28.7222;54.6;53;1007.45;2.12187;336;-1;
1657365989;09/07/2022 11:26:29;28.6667;54.7;52;1007.42;11.6703;144;-1;
1657366054;09/07/2022 11:27:34;28.6667;54.7;53;1007.35;1.06093;136;-1;
1657366118;09/07/2022 11:28:38;28.6111;54.7;52;1007.38;6.3656;271;-1;
1657366179;09/07/2022 11:29:39;28.5556;54.8;52;1007.28;2.12187;109;-1;
1657366244;09/07/2022 11:30:44;28.5;54.9;51;1007.25;8.48747;128;-1;
1657366309;09/07/2022 11:31:49;28.5;54.9;51;1007.42;3.1828;138;-1;
1657366374;09/07/2022 11:32:54;28.5;54.9;51;1007.42;1.06093;117;-1;
1657366439;09/07/2022 11:33:59;28.5556;54.9;51;1007.32;2.12187;25;-1;
1657366504;09/07/2022 11:35:04;28.6111;55;51;1007.42;6.3656;92;-1;
1657366569;09/07/2022 11:36:09;28.6111;55.1;51;1007.32;7.42654;80;-1;
1657366634;09/07/2022 11:37:14;28.6111;55.2;51;1007.32;2.12187;286;-1;
1657366699;09/07/2022 11:38:19;28.6111;55.2;51;1007.42;2.12187;12;-1;
1657366764;09/07/2022 11:39:24;28.6667;55.3;51;1007.28;3.1828;355;-1;
1657366828;09/07/2022 11:40:28;28.7778;55.4;49;1007.35;3.1828;259;-1;
1657366889;09/07/2022 11:41:29;28.9444;55.4;50;1007.35;4.24374;290;-1;
1657366954;09/07/2022 11:42:34;29;55.5;50;1007.25;4.24374;94;-1;
1657367019;09/07/2022 11:43:39;29;55.4;50;1007.32;3.1828;153;-1;
1657367084;09/07/2022 11:44:44;28.9444;55.4;50;1007.25;3.1828;344;-1;
1657367149;09/07/2022 11:45:49;28.9444;55.5;50;1007.28;4.24374;55;-1;
1657367214;09/07/2022 11:46:54;28.9444;55.5;50;1007.25;4.24374;29;-1;
1657367279;09/07/2022 11:47:59;28.9444;55.5;51;1007.35;5.30467;323;-1;
1657367344;09/07/2022 11:49:04;28.8333;55.6;52;1007.35;5.30467;329;-1;
1657367404;09/07/2022 11:50:04;28.6667;55.6;53;1007.35;8.48747;342;-1;
1657367469;09/07/2022 11:51:09;28.5;55.5;53;1007.28;4.24374;29;-1;
1657367534;09/07/2022 11:52:14;28.3889;55.6;53;1007.28;2.12187;87;-1;
1657367599;09/07/2022 11:53:19;28.2778;55.6;54;1007.28;6.3656;68;-1;
1657367664;09/07/2022 11:54:24;28.2778;55.5;55;1007.25;1.06093;184;-1;
1657367729;09/07/2022 11:55:29;28.2778;55.5;55;1007.25;4.24374;344;-1;
1657367794;09/07/2022 11:56:34;28.3333;55.6;53;1007.25;4.24374;355;-1;
1657367858;09/07/2022 11:57:38;28.3889;55.6;54;1007.28;5.30467;15;-1;
1657367919;09/07/2022 11:58:39;28.4444;55.6;54;1007.11;6.3656;98;-1;
1657367984;09/07/2022 11:59:44;28.4444;55.5;54;1007.28;2.12187;36;-1;
1657368049;09/07/2022 12:00:49;28.4444;55.5;54;1007.25;3.1828;22;-1;
1657368114;09/07/2022 12:01:54;28.3333;55.6;54;1007.28;2.12187;325;-1;
1657368179;09/07/2022 12:02:59;28.2778;55.7;54;1007.25;4.24374;119;-1;
1657368244;09/07/2022 12:04:04;28.2222;55.8;54;1007.25;3.1828;113;-1;
1657368309;09/07/2022 12:05:09;28.2222;55.8;54;1007.18;4.24374;151;-1;
1657368379;09/07/2022 12:06:19;28.1667;55.7;53;1007.21;6.3656;59;-1;
1657368454;09/07/2022 12:07:34;28.0556;55.6;53;1007.21;6.3656;33;-1;
1657368519;09/07/2022 12:08:39;28;55.5;53;1007.25;4.24374;16;-1;
1657368584;09/07/2022 12:09:44;27.9444;55.5;53;1007.28;4.24374;31;-1;
1657368649;09/07/2022 12:10:49;27.8333;55.6;53;1007.21;12.7312;98;-1;
1657368714;09/07/2022 12:11:54;27.7778;55.7;53;1007.25;5.30467;67;-1;
1657368779;09/07/2022 12:12:59;27.7222;55.7;53;1007.21;7.42654;90;-1;
1657368844;09/07/2022 12:14:04;27.7222;55.8;53;1007.25;7.42654;101;-1;
1657368908;09/07/2022 12:15:08;27.6667;55.9;53;1007.21;2.12187;126;-1;
1657368974;09/07/2022 12:16:14;27.6667;56;53;1007.25;7.42654;134;-1;
1657369039;09/07/2022 12:17:19;27.7222;56;53;1007.32;8.48747;337;-1;
1657369103;09/07/2022 12:18:23;27.7222;56.1;53;1007.25;3.1828;346;-1;
1657369164;09/07/2022 12:19:24;27.7222;56.1;53;1007.25;4.24374;80;-1;
1657369229;09/07/2022 12:20:29;27.7222;56.1;53;1007.25;8.48747;117;-1;
1657369294;09/07/2022 12:21:34;27.6667;56;53;1007.28;8.48747;80;-1;
1657369359;09/07/2022 12:22:39;27.6111;56;53;1007.18;4.24374;336;-1;
1657369423;09/07/2022 12:23:43;27.6667;56;53;1007.21;3.1828;294;-1;
1657369483;09/07/2022 12:24:43;27.6667;56;53;1007.15;3.1828;12;-1;
1657369544;09/07/2022 12:25:44;27.6667;56;53;1007.21;5.30467;73;-1;
1657369608;09/07/2022 12:26:48;27.6667;56;52;1007.32;3.1828;40;-1;
1657369669;09/07/2022 12:27:49;27.6667;56;52;1007.08;6.3656;360;-1;
1657369734;09/07/2022 12:28:54;27.6667;55.9;52;1007.21;4.24374;85;-1;
1657369799;09/07/2022 12:29:59;27.6111;56;52;1007.15;6.3656;36;-1;
1657369864;09/07/2022 12:31:04;27.6111;56;51;1007.25;8.48747;132;-1;
1657369929;09/07/2022 12:32:09;27.6667;56.1;51;1007.25;5.30467;217;-1;
1657369994;09/07/2022 12:33:14;27.6667;56.1;51;1007.28;4.24374;355;-1;
1657370059;09/07/2022 12:34:19;27.6667;56.3;51;1007.28;5.30467;18;-1;
1657370123;09/07/2022 12:35:23;27.7222;56.3;50;1007.18;5.30467;80;-1;
1657370189;09/07/2022 12:36:29;27.7222;56.3;50;1007.18;4.24374;17;-1;
1657370254;09/07/2022 12:37:34;27.7222;56.3;50;1007.08;2.12187;306;-1;
1657370318;09/07/2022 12:38:38;27.7222;56.4;50;1007.15;5.30467;327;-1;
1657370379;09/07/2022 12:39:39;27.7222;56.4;50;1007.25;5.30467;348;-1;
1657370444;09/07/2022 12:40:44;27.7778;56.4;50;1007.15;2.12187;67;-1;
1657370509;09/07/2022 12:41:49;27.7778;56.5;50;1007.21;5.30467;341;-1;
1657370574;09/07/2022 12:42:54;27.7778;56.4;51;1007.11;10.6093;120;-1;
1657370639;09/07/2022 12:43:59;27.7222;56.4;51;1007.11;4.24374;77;-1;
1657370704;09/07/2022 12:45:04;27.7222;56.4;52;1007.04;4.24374;90;-1;
1657370769;09/07/2022 12:46:09;27.6667;56.3;52;1007.15;3.1828;348;-1;
1657370833;09/07/2022 12:47:13;27.6667;56.3;52;1007.11;3.1828;5;-1;
1657370894;09/07/2022 12:48:14;27.6667;56.4;52;1007.11;4.24374;11;-1;
1657370959;09/07/2022 12:49:19;27.6111;56.5;52;1007.15;9.54841;277;-1;
1657371024;09/07/2022 12:50:24;27.5556;56.5;52;1007.08;5.30467;86;-1;
1657371084;09/07/2022 12:51:24;27.5556;56.5;52;1007.11;6.3656;355;-1;
1657371149;09/07/2022 12:52:29;27.5;56.6;53;1006.98;10.6093;111;-1;
1657371213;09/07/2022 12:53:33;27.5;56.5;53;1007.04;4.24374;83;-1;
1657371274;09/07/2022 12:54:34;27.5;56.5;53;1007.01;2.12187;92;-1;
1657371338;09/07/2022 12:55:38;27.5;56.6;53;1007.04;8.48747;118;-1;
1657371404;09/07/2022 12:56:44;27.5556;56.5;53;1007.08;5.30467;76;-1;
1657371469;09/07/2022 12:57:49;27.5556;56.5;53;1006.98;6.3656;348;-1;
1657371533;09/07/2022 12:58:53;27.5556;56.6;53;1007.01;5.30467;40;-1;
1657371594;09/07/2022 12:59:54;27.5556;56.6;53;1007.01;4.24374;15;-1;
1657371659;09/07/2022 13:00:59;27.5556;56.6;52;1007.04;7.42654;14;-1;
1657371724;09/07/2022 13:02:04;27.5556;56.5;53;1007.01;6.3656;70;-1;
1657371789;09/07/2022 13:03:09;27.6111;56.5;52;1006.91;8.48747;346;-1;
1657371854;09/07/2022 13:04:14;27.5556;56.4;53;1006.94;5.30467;22;-1;
1657371919;09/07/2022 13:05:19;27.5;56.5;53;1007.04;10.6093;56;-1;
1657371984;09/07/2022 13:06:24;27.4444;56.4;53;1006.98;6.3656;355;-1;
1657372048;09/07/2022 13:07:28;27.3889;56.4;53;1006.94;9.54841;360;-1;
1657372108;09/07/2022 13:08:28;27.3889;56.4;53;1006.94;4.24374;344;-1;
1657372169;09/07/2022 13:09:29;27.2778;56.4;53;1006.94;6.3656;35;-1;
1657372233;09/07/2022 13:10:33;27.2222;56.4;54;1007.04;8.48747;340;-1;
1657372294;09/07/2022 13:11:34;27.2222;56.5;54;1006.88;8.48747;25;-1;
1657372359;09/07/2022 13:12:39;27.2222;56.5;54;1006.98;4.24374;328;-1;
1657372424;09/07/2022 13:13:44;27.2778;56.5;54;1006.81;4.24374;82;-1;
1657372489;09/07/2022 13:14:49;27.2778;56.3;54;1006.94;5.30467;355;-1;
1657372554;09/07/2022 13:15:54;27.3889;56.2;54;1006.88;6.3656;94;-1;
1657372619;09/07/2022 13:16:59;27.3889;56.1;54;1006.88;6.3656;45;-1;
1657372684;09/07/2022 13:18:04;27.3333;56.1;54;1006.84;8.48747;304;-1;
1657372748;09/07/2022 13:19:08;27.2222;56.1;54;1006.88;6.3656;38;-1;
1657372809;09/07/2022 13:20:09;27.2222;56;54;1006.84;4.24374;84;-1;
1657372874;09/07/2022 13:21:14;27.2778;55.9;54;1006.91;6.3656;315;-1;
1657372939;09/07/2022 13:22:19;27.2778;56;54;1006.77;4.24374;345;-1;
1657373004;09/07/2022 13:23:24;27.2778;56.1;55;1006.91;8.48747;304;-1;
1657373069;09/07/2022 13:24:29;27.3333;56.2;55;1006.81;4.24374;332;-1;
1657373134;09/07/2022 13:25:34;27.3889;56.1;54;1006.81;5.30467;332;-1;
1657373199;09/07/2022 13:26:39;27.3889;56.3;54;1006.84;5.30467;300;-1;
1657373263;09/07/2022 13:27:43;27.3889;56.3;55;1006.88;4.24374;51;-1;
1657373329;09/07/2022 13:28:49;27.3333;56.3;55;1006.84;3.1828;134;-1;
1657373394;09/07/2022 13:29:54;27.3889;56.3;55;1006.84;2.12187;305;-1;
1657373458;09/07/2022 13:30:58;27.4444;56.3;55;1006.84;3.1828;32;-1;
1657373519;09/07/2022 13:31:59;27.4444;56.3;55;1006.88;5.30467;17;-1;
1657373584;09/07/2022 13:33:04;27.3889;56.3;54;1006.81;5.30467;315;-1;
1657373649;09/07/2022 13:34:09;27.3889;56.3;54;1006.84;9.54841;16;-1;
1657373714;09/07/2022 13:35:14;27.3889;56.2;54;1006.84;8.48747;345;-1;
1657373779;09/07/2022 13:36:19;27.3889;56.2;54;1006.84;4.24374;347;-1;
1657373844;09/07/2022 13:37:24;27.3889;56.2;54;1006.81;5.30467;84;-1;
1657373909;09/07/2022 13:38:29;27.3333;56.2;54;1006.81;4.24374;15;-1;
1657373973;09/07/2022 13:39:33;27.3333;56.1;54;1006.88;5.30467;29;-1;
1657374034;09/07/2022 13:40:34;27.3889;56.1;54;1006.77;8.48747;312;-1;
1657374099;09/07/2022 13:41:39;27.3333;56.1;54;1006.81;6.3656;268;-1;
1657374164;09/07/2022 13:42:44;27.3333;56.1;54;1006.81;4.24374;5;-1;
1657374229;09/07/2022 13:43:49;27.2778;56.1;55;1006.84;3.1828;5;-1;
1657374294;09/07/2022 13:44:54;27.2778;56.1;54;1006.77;6.3656;348;-1;
1657374359;09/07/2022 13:45:59;27.2222;56;55;1006.77;5.30467;315;-1;
1657374424;09/07/2022 13:47:04;27.1667;56.1;55;1006.77;7.42654;13;-1;
1657374488;09/07/2022 13:48:08;27.1111;56.1;55;1006.64;6.3656;22;-1;
1657374549;09/07/2022 13:49:09;27.1667;56;55;1006.77;5.30467;34;-1;
1657374614;09/07/2022 13:50:14;27.2778;56;55;1006.71;3.1828;316;-1;
1657374679;09/07/2022 13:51:19;27.3889;56;54;1006.74;6.3656;61;-1;
1657374744;09/07/2022 13:52:24;27.3889;56;54;1006.67;8.48747;107;-1;
1657374809;09/07/2022 13:53:29;27.3889;56.1;54;1006.74;4.24374;10;-1;
1657374874;09/07/2022 13:54:34;27.3889;56.1;54;1006.71;3.1828;62;-1;
1657374939;09/07/2022 13:55:39;27.3333;56;54;1006.71;6.3656;344;-1;
1657375004;09/07/2022 13:56:44;27.3333;56.1;54;1006.71;7.42654;19;-1;
1657375069;09/07/2022 13:57:49;27.2778;56;54;1006.64;6.3656;55;-1;
1657375134;09/07/2022 13:58:54;27.2222;56;54;1006.64;3.1828;309;-1;
1657375198;09/07/2022 13:59:58;27.1667;55.9;54;1006.64;5.30467;336;-1;
1657375259;09/07/2022 14:00:59;27.1111;56;54;1006.74;4.24374;346;-1;
1657375324;09/07/2022 14:02:04;27.1111;56;54;1006.67;5.30467;27;-1;